Weather History for Molokai, HI

Change the Weather History Date:

Saturday, October 12, 2013

  Actual Average Record
Temperature  
Mean Temperature 74 °F -  
Max Temperature 82 °F 84 °F 89 °F (1984)
Min Temperature 66 °F 70 °F 1 °F (2012)
Cooling Degree Days 9    
Growing Degree Days 24 (Base 50)    
Moisture  
Dew Point 71 °F    
Average Humidity 87    
Maximum Humidity 100    
Minimum Humidity 67    
Precipitation  
Precipitation 0.00 in - - ()
Sea Level Pressure  
Sea Level Pressure 30.02 in    
Wind  
Wind Speed 2 mph (NE)    
Max Wind Speed 10 mph    
Max Gust Speed -    
Visibility 10 miles    
Events      
Averages and records for this station are not official NWS values.
T = Trace of Precipitation, MM = Missing Value Source: NWS Daily Summary

Daily Weather History Graph

Daily Weather History Graph

Search for Another Location

Airport:

Trip Planner

Search our weather history database for the weather conditions in past years. The results will help you decide how hot, cold, wet, or windy it might be!

Date:

Astronomy

Oct. 12, 2013 Rise Set
Actual Time 6:23 AM HST 6:06 PM HST
Civil Twilight 6:00 AM HST 6:28 PM HST
Nautical Twilight 5:34 AM HST 6:54 PM HST
Astronomical Twilight 5:09 AM HST 7:19 PM HST
Moon 1:42 PM HST (10/12) 12:23 AM HST (10/12)
Length of Visible Light 12h 27m
Length of Day
11h 43m
First Quarter, 61% of the Moon is Illuminated
Oct 12
First Quarter
Oct 18
Full
Oct 26
Last Quarter
Nov 3
New
Nov 9
First Quarter

Hourly Weather History & Observations

Time (HST) Temp. Heat Index Dew Point Humidity Pressure Visibility Wind Dir Wind Speed Gust Speed Precip Events Conditions
12:54 AM 70.0 °F - 70.0 °F 100% 30.03 in 10.0 mi Calm Calm - N/A   Clear
1:54 AM 70.0 °F - 69.1 °F 97% 30.02 in 10.0 mi Calm Calm - N/A   Clear
2:54 AM 70.0 °F - 69.1 °F 97% 30.01 in 10.0 mi East 3.5 mph - N/A   Clear
3:54 AM 69.1 °F - 69.1 °F 100% 30.01 in 10.0 mi Calm Calm - N/A   Partly Cloudy
4:54 AM 68.0 °F - 68.0 °F 100% 30.01 in 10.0 mi Calm Calm - N/A   Clear
5:54 AM 66.9 °F - 66.9 °F 100% 30.01 in 10.0 mi Calm Calm - N/A   Clear
6:54 AM - - - N/A% 30.01 in 10.0 mi Calm Calm - N/A   Clear
7:54 AM 78.1 °F - 72.0 °F 81% 30.04 in 10.0 mi Calm Calm - N/A   Clear
8:54 AM 80.1 °F 83.6 °F 71.1 °F 74% 30.05 in 10.0 mi Calm Calm - N/A   Clear
9:54 AM 82.0 °F 85.9 °F 70.0 °F 67% 30.05 in 10.0 mi North 5.8 mph - N/A   Clear
10:54 AM 82.0 °F 87.4 °F 73.0 °F 74% 30.04 in 10.0 mi SSE 6.9 mph - N/A   Partly Cloudy
11:54 AM 82.9 °F 87.5 °F 71.1 °F 67% 30.01 in 10.0 mi North 10.4 mph - N/A   Partly Cloudy
12:54 PM 82.0 °F 86.7 °F 72.0 °F 71% 29.99 in 10.0 mi Variable 3.5 mph - N/A   Scattered Clouds
1:54 PM 81.0 °F 85.8 °F 73.0 °F 77% 29.97 in 10.0 mi Variable 6.9 mph - N/A   Scattered Clouds
2:54 PM 80.1 °F 83.8 °F 72.0 °F 76% 29.97 in 10.0 mi Variable 5.8 mph - N/A   Scattered Clouds
3:54 PM 80.1 °F 83.8 °F 72.0 °F 76% 29.98 in 10.0 mi SSE 8.1 mph - N/A   Scattered Clouds
4:54 PM 79.0 °F - 71.1 °F 77% 29.99 in 10.0 mi SSE 5.8 mph - N/A   Partly Cloudy
5:54 PM 77.0 °F - 71.1 °F 82% 30.00 in 10.0 mi NNE 4.6 mph - N/A   Scattered Clouds
6:54 PM 75.9 °F - 72.0 °F 87% 30.01 in 10.0 mi Calm Calm - N/A   Scattered Clouds
7:54 PM 75.0 °F - 73.0 °F 94% 30.02 in 10.0 mi NNE 3.5 mph - N/A   Clear
8:54 PM 73.9 °F - 73.0 °F 97% 30.04 in 10.0 mi NNE 3.5 mph - N/A   Clear
9:54 PM 71.1 °F - 71.1 °F 100% 30.04 in 10.0 mi Calm Calm - N/A   Clear
10:54 PM 71.1 °F - 71.1 °F 100% 30.04 in 10.0 mi Calm Calm - N/A   Clear
11:54 PM 71.1 °F - 71.1 °F 100% 30.03 in 10.0 mi North 4.6 mph - N/A   Clear